Location: The Saddle
(36.8333°N, 80.3417°W)
Time: 07:06:49
(UTC-04:00)

Transit 2A - All Passes

Search period start: 08 July 2025 00:00
Search period end: 18 July 2025 00:00
Orbit: 599 x 947 km, 66.7° (Epoch: 08 July)

Date Brightness Start Highest point End Pass type
(mag) Time Alt. Az. Time Alt. Az. Time Alt. Az.
08 Jul - 04:24:15 10° N 04:28:14 23° NE 04:32:30 10° ESE visible
08 Jul - 06:06:33 10° NW 06:11:22 44° WSW 06:16:40 10° S daylight
08 Jul - 19:01:53 10° SSE 19:05:23 23° ESE 19:08:50 10° NE daylight
08 Jul - 20:44:28 10° WSW 20:48:13 27° NW 20:51:57 10° N daylight
09 Jul - 03:48:56 10° NNE 03:52:00 16° NE 03:55:11 10° E visible
09 Jul - 05:30:20 10° NNW 05:35:23 70° WSW 05:40:57 10° SSE visible
09 Jul - 18:27:18 10° SE 18:29:32 14° ESE 18:31:44 10° ENE daylight
09 Jul - 20:07:54 10° SW 20:12:05 45° WNW 20:16:15 10° NNE daylight
10 Jul - 03:14:39 10° NE 03:15:39 11° NE 03:16:41 10° ENE visible
10 Jul - 04:54:18 10° NNW 04:59:21 75° ENE 05:04:56 10° SSE visible
10 Jul - 06:39:46 10° W 06:41:55 12° WSW 06:44:08 10° SW daylight
10 Jul - 19:31:38 10° SSW 19:36:01 77° WNW 19:40:21 10° NNE daylight
11 Jul - 04:18:24 10° NNW 04:23:16 48° ENE 04:28:38 10° SE visible
11 Jul - 06:02:16 10° WNW 06:06:02 20° WSW 06:10:03 10° SSW daylight
11 Jul - 18:55:42 10° SSW 18:59:59 61° ESE 19:04:16 10° NE daylight
11 Jul - 20:41:25 10° WNW 20:43:24 13° NW 20:45:23 10° NNW daylight
12 Jul - 03:42:39 10° N 03:47:09 32° ENE 03:52:02 10° ESE visible
12 Jul - 05:25:34 10° NW 05:30:08 32° WSW 05:35:03 10° S visible
12 Jul - 18:20:05 10° S 18:24:03 35° ESE 18:27:59 10° NE daylight
12 Jul - 20:03:55 10° W 20:07:06 20° NW 20:10:20 10° N daylight
13 Jul - 03:07:05 10° N 03:10:57 22° NE 03:15:04 10° ESE visible
13 Jul - 04:49:12 10° NW 04:54:09 50° WSW 04:59:36 10° S visible
13 Jul - 17:44:55 10° SSE 17:48:09 20° ESE 17:51:22 10° ENE daylight
13 Jul - 19:27:03 10° WSW 19:30:54 31° NW 19:34:47 10° N daylight
14 Jul - 02:31:53 10° NNE 02:34:41 15° NE 02:37:36 10° E visible
14 Jul - 04:13:02 10° NNW 04:18:09 79° WSW 04:23:49 10° SSE visible
14 Jul - 17:10:42 10° SE 17:12:19 12° ESE 17:13:55 10° E daylight
14 Jul - 18:50:33 10° SW 18:54:46 51° WNW 18:59:01 10° NNE daylight
15 Jul - 03:37:01 10° NNW 03:42:06 68° ENE 03:47:43 10° SE visible
15 Jul - 05:21:56 10° WNW 05:24:43 14° WSW 05:27:38 10° SW visible
15 Jul - 18:14:22 10° SSW 18:18:43 88° WNW 18:23:05 10° NNE daylight
16 Jul - 03:01:10 10° NNW 03:06:01 44° ENE 03:11:21 10° SE visible
16 Jul - 04:44:45 10° WNW 04:48:50 23° WSW 04:53:12 10° SSW visible
16 Jul - 17:38:29 10° S 17:42:43 53° ESE 17:46:57 10° NE daylight
16 Jul - 19:23:40 10° W 19:26:03 14° NW 19:28:27 10° NNW daylight
17 Jul - 02:25:27 10° N 02:29:52 29° NE 02:34:40 10° ESE visible
17 Jul - 04:08:10 10° NW 04:12:54 36° WSW 04:18:03 10° S visible
17 Jul - 17:02:59 10° S 17:06:47 30° ESE 17:10:36 10° NE daylight
17 Jul - 18:46:23 10° WSW 18:49:46 22° NW 18:53:12 10° N daylight
